Year,Month,Day,Hour,Minute,Value (Times are PST for temperature in C)
2008,08,07,00,00,13.90
2008,08,07,00,01,13.80
2008,08,07,00,02,13.80
2008,08,07,00,03,13.80
2008,08,07,00,04,13.80
2008,08,07,00,05,13.80
2008,08,07,00,06,13.70
2008,08,07,00,07,13.70
2008,08,07,00,08,13.70
2008,08,07,00,09,13.70
2008,08,07,00,10,13.60
2008,08,07,00,11,13.60
2008,08,07,00,12,13.60
2008,08,07,00,13,13.60
2008,08,07,00,14,13.60
2008,08,07,00,15,13.50
2008,08,07,00,16,13.50
2008,08,07,00,17,13.50
2008,08,07,00,18,13.50
2008,08,07,00,19,13.40
2008,08,07,00,20,13.40
2008,08,07,00,21,13.40
2008,08,07,00,22,13.40
2008,08,07,00,23,13.40
2008,08,07,00,24,13.40
2008,08,07,00,25,13.40
2008,08,07,00,26,13.40
2008,08,07,00,27,13.40
2008,08,07,00,28,13.40
2008,08,07,00,29,13.40
2008,08,07,00,30,13.30
2008,08,07,00,31,13.30
2008,08,07,00,32,13.30
2008,08,07,00,33,13.30
2008,08,07,00,34,13.30
2008,08,07,00,35,13.30
2008,08,07,00,36,13.30
2008,08,07,00,37,13.30
2008,08,07,00,38,13.30
2008,08,07,00,39,13.30
2008,08,07,00,40,13.30
2008,08,07,00,41,13.30
2008,08,07,00,42,13.30
2008,08,07,00,43,13.20
2008,08,07,00,44,13.20
2008,08,07,00,45,13.20
2008,08,07,00,46,13.20
2008,08,07,00,47,13.20
2008,08,07,00,48,13.20
2008,08,07,00,49,13.20
2008,08,07,00,50,13.20
2008,08,07,00,51,13.20
2008,08,07,00,52,13.20
2008,08,07,00,53,13.20
2008,08,07,00,54,13.20
2008,08,07,00,55,13.20
2008,08,07,00,56,13.20
2008,08,07,00,57,13.20
2008,08,07,00,58,13.20
2008,08,07,00,59,13.20
2008,08,07,01,00,13.20
2008,08,07,01,01,13.20
2008,08,07,01,02,13.20
2008,08,07,01,03,13.20
2008,08,07,01,04,13.20
2008,08,07,01,05,13.20
2008,08,07,01,06,13.10
2008,08,07,01,07,13.10
2008,08,07,01,08,13.10
2008,08,07,01,09,13.10
2008,08,07,01,10,13.10
2008,08,07,01,11,13.10
2008,08,07,01,12,13.10
2008,08,07,01,13,13.10
2008,08,07,01,14,13.10
2008,08,07,01,15,13.10
2008,08,07,01,16,13.10
2008,08,07,01,17,13.00
2008,08,07,01,18,13.00
2008,08,07,01,19,13.00
2008,08,07,01,20,13.00
2008,08,07,01,21,13.00
2008,08,07,01,22,13.00
2008,08,07,01,23,12.90
2008,08,07,01,24,12.90
2008,08,07,01,25,12.90
2008,08,07,01,26,12.90
2008,08,07,01,27,12.90
2008,08,07,01,28,12.90
2008,08,07,01,29,12.90
2008,08,07,01,30,12.90
2008,08,07,01,31,12.90
2008,08,07,01,32,12.90
2008,08,07,01,33,12.90
2008,08,07,01,34,12.90
2008,08,07,01,35,12.90
2008,08,07,01,36,12.80
2008,08,07,01,37,12.80
2008,08,07,01,38,12.80
2008,08,07,01,39,12.80
2008,08,07,01,40,12.80
2008,08,07,01,41,12.80
2008,08,07,01,42,12.80
2008,08,07,01,43,12.80
2008,08,07,01,44,12.80
2008,08,07,01,45,12.80
2008,08,07,01,46,12.80
2008,08,07,01,47,12.80
2008,08,07,01,48,12.80
2008,08,07,01,49,12.80
2008,08,07,01,50,12.70
2008,08,07,01,51,12.70
2008,08,07,01,52,12.70
2008,08,07,01,53,12.70
2008,08,07,01,54,12.70
2008,08,07,01,55,12.70
2008,08,07,01,56,12.70
2008,08,07,01,57,12.70
2008,08,07,01,58,12.70
2008,08,07,01,59,12.70
2008,08,07,02,00,12.70
2008,08,07,02,01,12.70
2008,08,07,02,02,12.70
2008,08,07,02,03,12.70
2008,08,07,02,04,12.70
2008,08,07,02,05,12.70
2008,08,07,02,06,12.70
2008,08,07,02,07,12.70
2008,08,07,02,08,12.70
2008,08,07,02,09,12.70
2008,08,07,02,10,12.60
2008,08,07,02,11,12.60
2008,08,07,02,12,12.70
2008,08,07,02,13,12.70
2008,08,07,02,14,12.70
2008,08,07,02,15,12.70
2008,08,07,02,16,12.70
2008,08,07,02,17,12.70
2008,08,07,02,18,12.70
2008,08,07,02,19,12.60
2008,08,07,02,20,12.60
2008,08,07,02,21,12.60
2008,08,07,02,22,12.60
2008,08,07,02,23,12.60
2008,08,07,02,24,12.60
2008,08,07,02,25,12.60
2008,08,07,02,26,12.60
2008,08,07,02,27,12.60
2008,08,07,02,28,12.60
2008,08,07,02,29,12.60
2008,08,07,02,30,12.60
2008,08,07,02,31,12.70
2008,08,07,02,32,12.70
2008,08,07,02,33,12.70
2008,08,07,02,34,12.70
2008,08,07,02,35,12.60
2008,08,07,02,36,12.70
2008,08,07,02,37,12.60
2008,08,07,02,38,12.60
2008,08,07,02,39,12.60
2008,08,07,02,40,12.60
2008,08,07,02,41,12.60
2008,08,07,02,42,12.60
2008,08,07,02,43,12.60
2008,08,07,02,44,12.60
2008,08,07,02,45,12.60
2008,08,07,02,46,12.60
2008,08,07,02,47,12.60
2008,08,07,02,48,12.60
2008,08,07,02,49,12.60
2008,08,07,02,50,12.60
2008,08,07,02,51,12.60
2008,08,07,02,52,12.60
2008,08,07,02,53,12.60
2008,08,07,02,54,12.60
2008,08,07,02,55,12.60
2008,08,07,02,56,12.60
2008,08,07,02,57,12.60
2008,08,07,02,58,12.60
2008,08,07,02,59,12.60
2008,08,07,03,00,12.60
2008,08,07,03,01,12.60
2008,08,07,03,02,12.60
2008,08,07,03,03,12.60
2008,08,07,03,04,12.60
2008,08,07,03,05,12.60
2008,08,07,03,06,12.60
2008,08,07,03,07,12.60
2008,08,07,03,08,12.60
2008,08,07,03,09,12.60
2008,08,07,03,10,12.60
2008,08,07,03,11,12.60
2008,08,07,03,12,12.60
2008,08,07,03,13,12.60
2008,08,07,03,14,12.60
2008,08,07,03,15,12.60
2008,08,07,03,16,12.60
2008,08,07,03,17,12.60
2008,08,07,03,18,12.60
2008,08,07,03,19,12.60
2008,08,07,03,20,12.50
2008,08,07,03,21,12.50
2008,08,07,03,22,12.50
2008,08,07,03,23,12.50
2008,08,07,03,24,12.40
2008,08,07,03,25,12.40
2008,08,07,03,26,12.40
2008,08,07,03,27,12.40
2008,08,07,03,28,12.40
2008,08,07,03,29,12.40
2008,08,07,03,30,12.40
2008,08,07,03,31,12.40
2008,08,07,03,32,12.40
2008,08,07,03,33,12.30
2008,08,07,03,34,12.30
2008,08,07,03,35,12.30
2008,08,07,03,36,12.30
2008,08,07,03,37,12.30
2008,08,07,03,38,12.30
2008,08,07,03,39,12.30
2008,08,07,03,40,12.30
2008,08,07,03,41,12.30
2008,08,07,03,42,12.30
2008,08,07,03,43,12.30
2008,08,07,03,44,12.30
2008,08,07,03,45,12.30
2008,08,07,03,46,12.30
2008,08,07,03,47,12.30
2008,08,07,03,48,12.30
2008,08,07,03,49,12.30
2008,08,07,03,50,12.30
2008,08,07,03,51,12.30
2008,08,07,03,52,12.30
2008,08,07,03,53,12.30
2008,08,07,03,54,12.30
2008,08,07,03,55,12.30
2008,08,07,03,56,12.20
2008,08,07,03,57,12.20
2008,08,07,03,58,12.20
2008,08,07,03,59,12.20
2008,08,07,04,00,12.20
2008,08,07,04,01,12.20
2008,08,07,04,02,12.20
2008,08,07,04,03,12.20
2008,08,07,04,04,12.10
2008,08,07,04,05,12.10
2008,08,07,04,06,12.10
2008,08,07,04,07,12.10
2008,08,07,04,08,12.10
2008,08,07,04,09,12.10
2008,08,07,04,10,12.10
2008,08,07,04,11,12.10
2008,08,07,04,12,12.10
2008,08,07,04,13,12.10
2008,08,07,04,14,12.10
2008,08,07,04,15,12.00
2008,08,07,04,16,12.00
2008,08,07,04,17,12.00
2008,08,07,04,18,12.00
2008,08,07,04,19,12.00
2008,08,07,04,20,12.00
2008,08,07,04,21,12.00
2008,08,07,04,22,12.00
2008,08,07,04,23,12.00
2008,08,07,04,24,12.00
2008,08,07,04,25,11.90
2008,08,07,04,26,11.90
2008,08,07,04,27,11.90
2008,08,07,04,28,11.90
2008,08,07,04,29,11.90
2008,08,07,04,30,11.90
2008,08,07,04,31,11.90
2008,08,07,04,32,11.90
2008,08,07,04,33,11.90
2008,08,07,04,34,11.90
2008,08,07,04,35,11.90
2008,08,07,04,36,11.90
2008,08,07,04,37,11.90
2008,08,07,04,38,11.80
2008,08,07,04,39,11.80
2008,08,07,04,40,11.80
2008,08,07,04,41,11.80
2008,08,07,04,42,11.80
2008,08,07,04,43,11.80
2008,08,07,04,44,11.80
2008,08,07,04,45,11.80
2008,08,07,04,46,11.80
2008,08,07,04,47,11.80
2008,08,07,04,48,11.80
2008,08,07,04,49,11.80
2008,08,07,04,50,11.80
2008,08,07,04,51,11.80
2008,08,07,04,52,11.80
2008,08,07,04,53,11.80
2008,08,07,04,54,11.80
2008,08,07,04,55,11.80
2008,08,07,04,56,11.80
2008,08,07,04,57,11.80
2008,08,07,04,58,11.80
2008,08,07,04,59,11.80
2008,08,07,05,00,11.80
2008,08,07,05,01,11.80
2008,08,07,05,02,11.80
2008,08,07,05,03,11.80
2008,08,07,05,04,11.80
2008,08,07,05,05,11.80
2008,08,07,05,06,11.80
2008,08,07,05,07,11.80
2008,08,07,05,08,11.80
2008,08,07,05,09,11.80
2008,08,07,05,10,11.80
2008,08,07,05,11,11.80
2008,08,07,05,12,11.80
2008,08,07,05,13,11.70
2008,08,07,05,14,11.70
2008,08,07,05,15,11.70
2008,08,07,05,16,11.70
2008,08,07,05,17,11.70
2008,08,07,05,18,11.70
2008,08,07,05,19,11.70
2008,08,07,05,20,11.70
2008,08,07,05,21,11.70
2008,08,07,05,22,11.60
2008,08,07,05,23,11.60
2008,08,07,05,24,11.60
2008,08,07,05,25,11.60
2008,08,07,05,26,11.60
2008,08,07,05,27,11.60
2008,08,07,05,28,11.60
2008,08,07,05,29,11.60
2008,08,07,05,30,11.60
2008,08,07,05,31,11.60
2008,08,07,05,32,11.60
2008,08,07,05,33,11.60
2008,08,07,05,34,11.60
2008,08,07,05,35,11.60
2008,08,07,05,36,11.60
2008,08,07,05,37,11.60
2008,08,07,05,38,11.60
2008,08,07,05,39,11.60
2008,08,07,05,40,11.60
2008,08,07,05,41,11.60
2008,08,07,05,42,11.60
2008,08,07,05,43,11.60
2008,08,07,05,44,11.60
2008,08,07,05,45,11.60
2008,08,07,05,46,11.50
2008,08,07,05,47,11.50
2008,08,07,05,48,11.50
2008,08,07,05,49,11.60
2008,08,07,05,50,11.60
2008,08,07,05,51,11.60
2008,08,07,05,52,11.60
2008,08,07,05,53,11.50
2008,08,07,05,54,11.50
2008,08,07,05,55,11.50
2008,08,07,05,56,11.50
2008,08,07,05,57,11.50
2008,08,07,05,58,11.50
2008,08,07,05,59,11.50
2008,08,07,06,00,11.40
2008,08,07,06,01,11.50
2008,08,07,06,02,11.40
2008,08,07,06,03,11.40
2008,08,07,06,04,11.40
2008,08,07,06,05,11.40
2008,08,07,06,06,11.50
2008,08,07,06,07,11.40
2008,08,07,06,08,11.50
2008,08,07,06,09,11.50
2008,08,07,06,10,11.50
2008,08,07,06,11,11.40
2008,08,07,06,12,11.40
2008,08,07,06,13,11.40
2008,08,07,06,14,11.50
2008,08,07,06,15,11.50
2008,08,07,06,16,11.50
2008,08,07,06,17,11.50
2008,08,07,06,18,11.50
2008,08,07,06,19,11.50
2008,08,07,06,20,11.40
2008,08,07,06,21,11.40
2008,08,07,06,22,11.40
2008,08,07,06,23,11.50
2008,08,07,06,24,11.50
2008,08,07,06,25,11.50
2008,08,07,06,26,11.50
2008,08,07,06,27,11.50
2008,08,07,06,28,11.50
2008,08,07,06,29,11.50
2008,08,07,06,30,11.50
2008,08,07,06,31,11.50
2008,08,07,06,32,11.50
2008,08,07,06,33,11.50
2008,08,07,06,34,11.50
2008,08,07,06,35,11.50
2008,08,07,06,36,11.60
2008,08,07,06,37,11.60
2008,08,07,06,38,11.60
2008,08,07,06,39,11.60
2008,08,07,06,40,11.60
2008,08,07,06,41,11.60
2008,08,07,06,42,11.60
2008,08,07,06,43,11.60
2008,08,07,06,44,11.70
2008,08,07,06,45,11.70
2008,08,07,06,46,11.70
2008,08,07,06,47,11.70
2008,08,07,06,48,11.70
2008,08,07,06,49,11.70
2008,08,07,06,50,11.70
2008,08,07,06,51,11.80
2008,08,07,06,52,11.80
2008,08,07,06,53,11.80
2008,08,07,06,54,11.80
2008,08,07,06,55,11.90
2008,08,07,06,56,11.90
2008,08,07,06,57,11.90
2008,08,07,06,58,11.90
2008,08,07,06,59,12.00
2008,08,07,07,00,12.00
2008,08,07,07,01,12.10
2008,08,07,07,02,12.10
2008,08,07,07,03,12.10
2008,08,07,07,04,12.20
2008,08,07,07,05,12.30
2008,08,07,07,06,12.40
2008,08,07,07,07,12.40
2008,08,07,07,08,12.50
2008,08,07,07,09,12.60
2008,08,07,07,10,12.70
2008,08,07,07,11,12.70
2008,08,07,07,12,12.80
2008,08,07,07,13,12.80
2008,08,07,07,14,12.90
2008,08,07,07,15,13.00
2008,08,07,07,16,13.00
2008,08,07,07,17,13.10
2008,08,07,07,18,13.10
2008,08,07,07,19,13.20
2008,08,07,07,20,13.30
2008,08,07,07,21,13.30
2008,08,07,07,22,13.40
2008,08,07,07,23,13.50
2008,08,07,07,24,13.60
2008,08,07,07,25,13.70
2008,08,07,07,26,13.80
2008,08,07,07,27,13.90
2008,08,07,07,28,13.90
2008,08,07,07,29,14.00
2008,08,07,07,30,14.00
2008,08,07,07,31,14.00
2008,08,07,07,32,14.00
2008,08,07,07,33,14.10
2008,08,07,07,34,14.10
2008,08,07,07,35,14.10
2008,08,07,07,36,14.10
2008,08,07,07,37,14.20
2008,08,07,07,38,14.20
2008,08,07,07,39,14.20
2008,08,07,07,40,14.20
2008,08,07,07,41,14.20
2008,08,07,07,42,14.20
2008,08,07,07,43,14.30
2008,08,07,07,44,14.30
2008,08,07,07,45,14.40
2008,08,07,07,46,14.40
2008,08,07,07,47,14.40
2008,08,07,07,48,14.50
2008,08,07,07,49,14.50
2008,08,07,07,50,14.60
2008,08,07,07,51,14.60
2008,08,07,07,52,14.60
2008,08,07,07,53,14.60
2008,08,07,07,54,14.50
2008,08,07,07,55,14.50
2008,08,07,07,56,14.40
2008,08,07,07,57,14.40
2008,08,07,07,58,14.40
2008,08,07,07,59,14.30
2008,08,07,08,00,14.30
2008,08,07,08,01,14.20
2008,08,07,08,02,14.20
2008,08,07,08,03,14.20
2008,08,07,08,04,14.20
2008,08,07,08,05,14.30
2008,08,07,08,06,14.30
2008,08,07,08,07,14.40
2008,08,07,08,08,14.40
2008,08,07,08,09,14.50
2008,08,07,08,10,14.50
2008,08,07,08,11,14.60
2008,08,07,08,12,14.70
2008,08,07,08,13,14.80
2008,08,07,08,14,14.90
2008,08,07,08,15,15.00
2008,08,07,08,16,15.00
2008,08,07,08,17,15.00
2008,08,07,08,18,15.00
2008,08,07,08,19,15.00
2008,08,07,08,20,15.00
2008,08,07,08,21,15.00
2008,08,07,08,22,15.00
2008,08,07,08,23,14.90
2008,08,07,08,24,14.90
2008,08,07,08,25,14.90
2008,08,07,08,26,14.80
2008,08,07,08,27,14.90
2008,08,07,08,28,15.00
2008,08,07,08,29,15.00
2008,08,07,08,30,15.00
2008,08,07,08,31,15.00
2008,08,07,08,32,15.20
2008,08,07,08,33,15.30
2008,08,07,08,34,15.40
2008,08,07,08,35,15.40
2008,08,07,08,36,15.50
2008,08,07,08,37,15.60
2008,08,07,08,38,15.50
2008,08,07,08,39,15.50
2008,08,07,08,40,15.50
2008,08,07,08,41,15.40
2008,08,07,08,42,15.30
2008,08,07,08,43,15.20
2008,08,07,08,44,15.20
2008,08,07,08,45,15.20
2008,08,07,08,46,15.30
2008,08,07,08,47,15.30
2008,08,07,08,48,15.20
2008,08,07,08,49,15.30
2008,08,07,08,50,15.30
2008,08,07,08,51,15.40
2008,08,07,08,52,15.40
2008,08,07,08,53,15.30
2008,08,07,08,54,15.30
2008,08,07,08,55,15.30
2008,08,07,08,56,15.20
2008,08,07,08,57,15.20
2008,08,07,08,58,15.20
2008,08,07,08,59,15.20
2008,08,07,09,00,15.30
2008,08,07,09,01,15.40
2008,08,07,09,02,15.40
2008,08,07,09,03,15.40
2008,08,07,09,04,15.40
2008,08,07,09,05,15.40
2008,08,07,09,06,15.40
2008,08,07,09,07,15.40
2008,08,07,09,08,15.40
2008,08,07,09,09,15.50
2008,08,07,09,10,15.50
2008,08,07,09,11,15.50
2008,08,07,09,12,15.50
2008,08,07,09,13,15.50
2008,08,07,09,14,15.60
2008,08,07,09,15,15.60
2008,08,07,09,16,15.60
2008,08,07,09,17,15.60
2008,08,07,09,18,15.60
2008,08,07,09,19,15.50
2008,08,07,09,20,15.50
2008,08,07,09,21,15.40
2008,08,07,09,22,15.50
2008,08,07,09,23,15.50
2008,08,07,09,24,15.50
2008,08,07,09,25,15.50
2008,08,07,09,26,15.50
2008,08,07,09,27,15.60
2008,08,07,09,28,15.60
2008,08,07,09,29,15.50
2008,08,07,09,30,15.50
2008,08,07,09,31,15.60
2008,08,07,09,32,15.70
2008,08,07,09,33,15.80
2008,08,07,09,34,15.80
2008,08,07,09,35,15.80
2008,08,07,09,36,15.90
2008,08,07,09,37,15.90
2008,08,07,09,38,16.00
2008,08,07,09,39,16.10
2008,08,07,09,40,16.10
2008,08,07,09,41,16.10
2008,08,07,09,42,16.10
2008,08,07,09,43,16.00
2008,08,07,09,44,15.90
2008,08,07,09,45,15.90
2008,08,07,09,46,15.90
2008,08,07,09,47,15.90
2008,08,07,09,48,15.90
2008,08,07,09,49,16.00
2008,08,07,09,50,16.10
2008,08,07,09,51,16.20
2008,08,07,09,52,16.30
2008,08,07,09,53,16.30
2008,08,07,09,54,16.30
2008,08,07,09,55,16.40
2008,08,07,09,56,16.40
2008,08,07,09,57,16.50
2008,08,07,09,58,16.60
2008,08,07,09,59,16.60
2008,08,07,10,00,16.60
2008,08,07,10,01,16.50
2008,08,07,10,02,16.40
2008,08,07,10,03,16.30
2008,08,07,10,04,16.30
2008,08,07,10,05,16.20
2008,08,07,10,06,16.20
2008,08,07,10,07,16.20
2008,08,07,10,08,16.20
2008,08,07,10,09,16.20
2008,08,07,10,10,16.30
2008,08,07,10,11,16.30
2008,08,07,10,12,16.40
2008,08,07,10,13,16.40
2008,08,07,10,14,16.50
2008,08,07,10,15,16.60
2008,08,07,10,16,16.70
2008,08,07,10,17,16.70
2008,08,07,10,18,16.70
2008,08,07,10,19,16.70
2008,08,07,10,20,16.80
2008,08,07,10,21,16.80
2008,08,07,10,22,17.00
2008,08,07,10,23,17.00
2008,08,07,10,24,17.00
2008,08,07,10,25,17.00
2008,08,07,10,26,17.00
2008,08,07,10,27,17.00
2008,08,07,10,28,17.00
2008,08,07,10,29,17.10
2008,08,07,10,30,17.10
2008,08,07,10,31,17.10
2008,08,07,10,32,17.10
2008,08,07,10,33,17.10
2008,08,07,10,34,17.10
2008,08,07,10,35,17.20
2008,08,07,10,36,17.20
2008,08,07,10,37,17.30
2008,08,07,10,38,17.50
2008,08,07,10,39,17.60
2008,08,07,10,40,17.70
2008,08,07,10,41,17.90
2008,08,07,10,42,17.90
2008,08,07,10,43,18.00
2008,08,07,10,44,18.10
2008,08,07,10,45,18.30
2008,08,07,10,46,18.30
2008,08,07,10,47,18.40
2008,08,07,10,48,18.40
2008,08,07,10,49,18.50
2008,08,07,10,50,18.60
2008,08,07,10,51,18.60
2008,08,07,10,52,18.60
2008,08,07,10,53,18.50
2008,08,07,10,54,18.40
2008,08,07,10,55,18.30
2008,08,07,10,56,18.20
2008,08,07,10,57,18.20
2008,08,07,10,58,18.20
2008,08,07,10,59,18.20
2008,08,07,11,00,18.10
2008,08,07,11,01,18.10
2008,08,07,11,02,18.10
2008,08,07,11,03,18.20
2008,08,07,11,04,18.10
2008,08,07,11,05,18.10
2008,08,07,11,06,18.00
2008,08,07,11,07,18.00
2008,08,07,11,08,17.90
2008,08,07,11,09,17.80
2008,08,07,11,10,17.70
2008,08,07,11,11,17.70
2008,08,07,11,12,17.70
2008,08,07,11,13,17.70
2008,08,07,11,14,17.70
2008,08,07,11,15,17.70
2008,08,07,11,16,17.60
2008,08,07,11,17,17.50
2008,08,07,11,18,17.40
2008,08,07,11,19,17.40
2008,08,07,11,20,17.40
2008,08,07,11,21,17.50
2008,08,07,11,22,17.50
2008,08,07,11,23,17.60
2008,08,07,11,24,17.80
2008,08,07,11,25,17.90
2008,08,07,11,26,18.10
2008,08,07,11,27,18.20
2008,08,07,11,28,18.30
2008,08,07,11,29,18.40
2008,08,07,11,30,18.50
2008,08,07,11,31,18.60
2008,08,07,11,32,18.60
2008,08,07,11,33,18.80
2008,08,07,11,34,18.80
2008,08,07,11,35,18.80
2008,08,07,11,36,18.80
2008,08,07,11,37,18.70
2008,08,07,11,38,18.70
2008,08,07,11,39,18.70
2008,08,07,11,40,18.70
2008,08,07,11,41,18.80
2008,08,07,11,42,18.90
2008,08,07,11,43,18.80
2008,08,07,11,44,18.70
2008,08,07,11,45,18.70
2008,08,07,11,46,18.70
2008,08,07,11,47,18.70
2008,08,07,11,48,18.80
2008,08,07,11,49,18.80
2008,08,07,11,50,18.70
2008,08,07,11,51,18.80
2008,08,07,11,52,18.80
2008,08,07,11,53,18.80
2008,08,07,11,54,18.80
2008,08,07,11,55,18.80
2008,08,07,11,56,18.80
2008,08,07,11,57,18.80
2008,08,07,11,58,18.80
2008,08,07,11,59,18.80
2008,08,07,12,00,18.80
2008,08,07,12,01,18.90
2008,08,07,12,02,18.90
2008,08,07,12,03,19.00
2008,08,07,12,04,19.10
2008,08,07,12,05,19.20
2008,08,07,12,06,19.20
2008,08,07,12,07,19.20
2008,08,07,12,08,19.20
2008,08,07,12,09,19.30
2008,08,07,12,10,19.40
2008,08,07,12,11,19.50
2008,08,07,12,12,19.60
2008,08,07,12,13,19.60
2008,08,07,12,14,19.70
2008,08,07,12,15,19.70
2008,08,07,12,16,19.80
2008,08,07,12,17,19.80
2008,08,07,12,18,19.90
2008,08,07,12,19,20.00
2008,08,07,12,20,20.00
2008,08,07,12,21,20.10
2008,08,07,12,22,20.10
2008,08,07,12,23,20.20
2008,08,07,12,24,20.30
2008,08,07,12,25,20.40
2008,08,07,12,26,20.50
2008,08,07,12,27,20.60
2008,08,07,12,28,20.70
2008,08,07,12,29,20.70
2008,08,07,12,30,20.70
2008,08,07,12,31,20.70
2008,08,07,12,32,20.80
2008,08,07,12,33,20.80
2008,08,07,12,34,20.70
2008,08,07,12,35,20.60
2008,08,07,12,36,20.60
2008,08,07,12,37,20.50
2008,08,07,12,38,20.50
2008,08,07,12,39,20.50
2008,08,07,12,40,20.60
2008,08,07,12,41,20.60
2008,08,07,12,42,20.60
2008,08,07,12,43,20.60
2008,08,07,12,44,20.60
2008,08,07,12,45,20.70
2008,08,07,12,46,20.70
2008,08,07,12,47,20.80
2008,08,07,12,48,20.80
2008,08,07,12,49,20.70
2008,08,07,12,50,20.70
2008,08,07,12,51,20.60
2008,08,07,12,52,20.50
2008,08,07,12,53,20.40
2008,08,07,12,54,20.40
2008,08,07,12,55,20.40
2008,08,07,12,56,20.40
2008,08,07,12,57,20.40
2008,08,07,12,58,20.30
2008,08,07,12,59,20.20
2008,08,07,13,00,20.20
2008,08,07,13,01,20.10
2008,08,07,13,02,20.00
2008,08,07,13,03,20.00
2008,08,07,13,04,19.90
2008,08,07,13,05,19.80
2008,08,07,13,06,19.80
2008,08,07,13,07,19.80
2008,08,07,13,08,19.70
2008,08,07,13,09,19.80
2008,08,07,13,10,19.80
2008,08,07,13,11,19.80
2008,08,07,13,12,19.80
2008,08,07,13,13,19.80
2008,08,07,13,14,19.80
2008,08,07,13,15,19.80
2008,08,07,13,16,19.90
2008,08,07,13,17,19.90
2008,08,07,13,18,20.00
2008,08,07,13,19,20.10
2008,08,07,13,20,20.20
2008,08,07,13,21,20.20
2008,08,07,13,22,20.30
2008,08,07,13,23,20.40
2008,08,07,13,24,20.20
2008,08,07,13,25,20.20
2008,08,07,13,26,20.00
2008,08,07,13,27,19.90
2008,08,07,13,28,19.90
2008,08,07,13,29,19.90
2008,08,07,13,30,19.90
2008,08,07,13,31,19.90
2008,08,07,13,32,19.90
2008,08,07,13,33,19.80
2008,08,07,13,34,19.80
2008,08,07,13,35,19.80
2008,08,07,13,36,19.80
2008,08,07,13,37,19.90
2008,08,07,13,38,19.90
2008,08,07,13,39,19.90
2008,08,07,13,40,20.00
2008,08,07,13,41,20.10
2008,08,07,13,42,20.10
2008,08,07,13,43,20.20
2008,08,07,13,44,20.20
2008,08,07,13,45,20.20
2008,08,07,13,46,20.20
2008,08,07,13,47,20.20
2008,08,07,13,48,20.20
2008,08,07,13,49,20.20
2008,08,07,13,50,20.30
2008,08,07,13,51,20.30
2008,08,07,13,52,20.40
2008,08,07,13,53,20.50
2008,08,07,13,54,20.60
2008,08,07,13,55,20.70
2008,08,07,13,56,20.80
2008,08,07,13,57,20.90
2008,08,07,13,58,20.90
2008,08,07,13,59,21.00
2008,08,07,14,00,21.10
2008,08,07,14,01,21.20
2008,08,07,14,02,21.30
2008,08,07,14,03,21.30
2008,08,07,14,04,21.40
2008,08,07,14,05,21.40
2008,08,07,14,06,21.30
2008,08,07,14,07,21.30
2008,08,07,14,08,21.30
2008,08,07,14,09,21.30
2008,08,07,14,10,21.30
2008,08,07,14,11,21.20
2008,08,07,14,12,21.20
2008,08,07,14,13,21.20
2008,08,07,14,14,21.20
2008,08,07,14,15,21.20
2008,08,07,14,16,21.20
2008,08,07,14,17,21.20
2008,08,07,14,18,21.20
2008,08,07,14,19,21.20
2008,08,07,14,20,21.20
2008,08,07,14,21,21.30
2008,08,07,14,22,21.30
2008,08,07,14,23,21.30
2008,08,07,14,24,21.30
2008,08,07,14,25,21.30
2008,08,07,14,26,21.40
2008,08,07,14,27,21.50
2008,08,07,14,28,21.60
2008,08,07,14,29,21.60
2008,08,07,14,30,21.60
2008,08,07,14,31,21.60
2008,08,07,14,32,21.70
2008,08,07,14,33,21.80
2008,08,07,14,34,21.80
2008,08,07,14,35,21.80
2008,08,07,14,36,21.80
2008,08,07,14,37,21.80
2008,08,07,14,38,21.90
2008,08,07,14,39,21.90
2008,08,07,14,40,21.90
2008,08,07,14,41,21.90
2008,08,07,14,42,21.80
2008,08,07,14,43,21.80
2008,08,07,14,44,21.80
2008,08,07,14,45,21.80
2008,08,07,14,46,21.80
2008,08,07,14,47,21.90
2008,08,07,14,48,22.00
2008,08,07,14,49,22.10
2008,08,07,14,50,22.10
2008,08,07,14,51,22.10
2008,08,07,14,52,22.00
2008,08,07,14,53,21.90
2008,08,07,14,54,21.90
2008,08,07,14,55,21.90
2008,08,07,14,56,21.90
2008,08,07,14,57,21.90
2008,08,07,14,58,22.00
2008,08,07,14,59,22.00
2008,08,07,15,00,22.10
2008,08,07,15,01,22.00
2008,08,07,15,02,21.90
2008,08,07,15,03,21.80
2008,08,07,15,04,21.90
2008,08,07,15,05,21.90
2008,08,07,15,06,22.00
2008,08,07,15,07,22.00
2008,08,07,15,08,22.00
2008,08,07,15,09,22.10
2008,08,07,15,10,22.10
2008,08,07,15,11,22.20
2008,08,07,15,12,22.30
2008,08,07,15,13,22.40
2008,08,07,15,14,22.50
2008,08,07,15,15,22.60
2008,08,07,15,16,22.60
2008,08,07,15,17,22.60
2008,08,07,15,18,22.60
2008,08,07,15,19,22.50
2008,08,07,15,20,22.50
2008,08,07,15,21,22.50
2008,08,07,15,22,22.50
2008,08,07,15,23,22.50
2008,08,07,15,24,22.60
2008,08,07,15,25,22.60
2008,08,07,15,26,22.60
2008,08,07,15,27,22.60
2008,08,07,15,28,22.60
2008,08,07,15,29,22.60
2008,08,07,15,30,22.60
2008,08,07,15,31,22.50
2008,08,07,15,32,22.50
2008,08,07,15,33,22.50
2008,08,07,15,34,22.40
2008,08,07,15,35,22.30
2008,08,07,15,36,22.30
2008,08,07,15,37,22.40
2008,08,07,15,38,22.40
2008,08,07,15,39,22.40
2008,08,07,15,40,22.50
2008,08,07,15,41,22.40
2008,08,07,15,42,22.30
2008,08,07,15,43,22.30
2008,08,07,15,44,22.20
2008,08,07,15,45,22.20
2008,08,07,15,46,22.10
2008,08,07,15,47,22.00
2008,08,07,15,48,21.80
2008,08,07,15,49,21.50
2008,08,07,15,50,21.30
2008,08,07,15,51,21.10
2008,08,07,15,52,20.90
2008,08,07,15,53,20.80
2008,08,07,15,54,20.70
2008,08,07,15,55,20.70
2008,08,07,15,56,20.80
2008,08,07,15,57,20.80
2008,08,07,15,58,20.90
2008,08,07,15,59,21.00
2008,08,07,16,00,21.10
2008,08,07,16,01,21.20
2008,08,07,16,02,21.30
2008,08,07,16,03,21.30
2008,08,07,16,04,21.40
2008,08,07,16,05,21.40
2008,08,07,16,06,21.50
2008,08,07,16,07,21.60
2008,08,07,16,08,21.70
2008,08,07,16,09,21.70
2008,08,07,16,10,21.70
2008,08,07,16,11,21.80
2008,08,07,16,12,21.70
2008,08,07,16,13,21.70
2008,08,07,16,14,21.70
2008,08,07,16,15,21.50
2008,08,07,16,16,21.40
2008,08,07,16,17,21.40
2008,08,07,16,18,21.40
2008,08,07,16,19,21.40
2008,08,07,16,20,21.30
2008,08,07,16,21,21.30
2008,08,07,16,22,21.30
2008,08,07,16,23,21.30
2008,08,07,16,24,21.30
2008,08,07,16,25,21.30
2008,08,07,16,26,21.30
2008,08,07,16,27,21.30
2008,08,07,16,28,21.40
2008,08,07,16,29,21.40
2008,08,07,16,30,21.40
2008,08,07,16,31,21.40
2008,08,07,16,32,21.50
2008,08,07,16,33,21.60
2008,08,07,16,34,21.60
2008,08,07,16,35,21.70
2008,08,07,16,36,21.70
2008,08,07,16,37,21.80
2008,08,07,16,38,21.80
2008,08,07,16,39,21.80
2008,08,07,16,40,21.80
2008,08,07,16,41,21.80
2008,08,07,16,42,21.70
2008,08,07,16,43,21.70
2008,08,07,16,44,21.70
2008,08,07,16,45,21.70
2008,08,07,16,46,21.70
2008,08,07,16,47,21.80
2008,08,07,16,48,21.80
2008,08,07,16,49,21.80
2008,08,07,16,50,21.80
2008,08,07,16,51,21.80
2008,08,07,16,52,21.80
2008,08,07,16,53,21.80
2008,08,07,16,54,21.80
2008,08,07,16,55,21.80
2008,08,07,16,56,21.80
2008,08,07,16,57,21.80
2008,08,07,16,58,21.80
2008,08,07,16,59,21.80
2008,08,07,17,00,21.80
2008,08,07,17,01,21.80
2008,08,07,17,02,21.80
2008,08,07,17,03,21.80
2008,08,07,17,04,21.80
2008,08,07,17,05,21.80
2008,08,07,17,06,21.80
2008,08,07,17,07,21.80
2008,08,07,17,08,21.80
2008,08,07,17,09,21.80
2008,08,07,17,10,21.80
2008,08,07,17,11,21.80
2008,08,07,17,12,21.80
2008,08,07,17,13,21.80
2008,08,07,17,14,21.80
2008,08,07,17,15,21.70
2008,08,07,17,16,21.60
2008,08,07,17,17,21.50
2008,08,07,17,18,21.50
2008,08,07,17,19,21.40